Weather History for KMTV - September, 2013

Change the Weather History Date:

Sunday, September 15, 2013

  Actual Average (KGSO) Record (KGSO)
Temperature  
Mean Temperature 62 °F 70 °F  
Max Temperature 79 °F 80 °F 97 °F (1927)
Min Temperature 45 °F 61 °F 41 °F (1985)
Degree Days  
Heating Degree Days 3 1  
Month to date heating degree days 3  
Since 1 July heating degree days 4  
Cooling Degree Days 0 6  
Month to date cooling degree days 121  
Year to date cooling degree days 1383  
Growing Degree Days 12 (Base 50)    
Moisture  
Dew Point 54 °F    
Average Humidity 80    
Maximum Humidity 99    
Minimum Humidity 46    
Precipitation  
Precipitation 0.00 in 0.14 in 1.94 in (1999)
Month to date precipitation 2.26  
Year to date precipitation 31.05  
Sea Level Pressure  
Sea Level Pressure 30.22 in    
Wind  
Wind Speed 1 mph (SSW)    
Max Wind Speed 7 mph    
Max Gust Speed -    
Visibility 8 miles    
Events      
T = Trace of Precipitation, MM = Missing Value Source: NWS Daily Summary

Daily Weather History Graph

Daily Weather History Graph

Search for Another Location

Airport or City:

Trip Planner

Search our weather history database for the weather conditions in past years. The results will help you decide how hot, cold, wet, or windy it might be!

Date:

Astronomy

Sep. 15, 2013 Rise Set
Actual Time 7:02 AM EDT 7:27 PM EDT
Civil Twilight 6:36 AM EDT 7:53 PM EDT
Nautical Twilight 6:06 AM EDT 8:23 PM EDT
Astronomical Twilight 5:35 AM EDT 8:54 PM EDT
Moon 4:48 PM EDT (9/15) 2:44 AM EDT (9/15)
Length of Visible Light 13h 16m
Length of Day
12h 24m
Waxing Gibbous, 82% of the Moon is Illuminated
Sep 15
Waxing Gibbous
Sep 19
Full
Sep 26
Last Quarter
Oct 4
New
Oct 11
First Quarter

Hourly Weather History & Observations

Time (EDT) Temp. Dew Point Humidity Pressure Visibility Wind Dir Wind Speed Gust Speed Precip Events Conditions
12:15 AM 52.3 °F 51.6 °F 97% 30.20 in 10.0 mi Calm Calm - N/A   Clear
12:35 AM 50.5 °F 49.8 °F 97% 30.20 in 4.0 mi Calm Calm - N/A   Clear
12:55 AM 50.5 °F 50.0 °F 98% 30.21 in 7.0 mi Calm Calm - N/A   Clear
1:15 AM 50.2 °F 49.3 °F 97% 30.21 in 7.0 mi Calm Calm - N/A   Clear
1:35 AM 50.0 °F 49.3 °F 97% 30.21 in 7.0 mi Calm Calm - N/A   Clear
1:55 AM 49.6 °F 48.9 °F 97% 30.22 in 10.0 mi Calm Calm - N/A   Clear
2:15 AM 49.1 °F 48.2 °F 97% 30.22 in 7.0 mi Calm Calm - N/A   Clear
2:35 AM 48.6 °F 47.8 °F 97% 30.22 in 7.0 mi Calm Calm - N/A   Clear
2:55 AM 48.4 °F 47.7 °F 97% 30.23 in 7.0 mi Calm Calm - N/A   Clear
3:15 AM 48.4 °F 47.7 °F 97% 30.23 in 7.0 mi Calm Calm - N/A   Clear
3:35 AM 47.7 °F 47.3 °F 99% 30.23 in 7.0 mi Calm Calm - N/A   Clear
3:55 AM 47.5 °F 46.8 °F 97% 30.23 in 5.0 mi Calm Calm - N/A   Clear
4:15 AM 47.3 °F 46.6 °F 97% 30.23 in 7.0 mi Calm Calm - N/A   Clear
4:35 AM 47.1 °F 46.4 °F 97% 30.23 in 7.0 mi Calm Calm - N/A   Clear
4:55 AM 46.8 °F 46.4 °F 99% 30.24 in 7.0 mi Calm Calm - N/A   Clear
5:15 AM 46.8 °F 46.0 °F 97% 30.25 in 7.0 mi Calm Calm - N/A   Clear
5:35 AM 46.0 °F 45.3 °F 97% 30.25 in 2.5 mi Calm Calm - N/A   Clear
5:55 AM 46.0 °F 45.5 °F 98% 30.25 in 5.0 mi Calm Calm - N/A   Clear
6:15 AM 46.8 °F 46.2 °F 98% 30.25 in 7.0 mi Calm Calm - N/A   Clear
6:35 AM 45.9 °F 45.5 °F 99% 30.25 in 5.0 mi Calm Calm - N/A   Clear
6:55 AM 45.9 °F 45.5 °F 99% 30.26 in 3.0 mi Calm Calm - N/A   Clear
7:15 AM 45.9 °F 45.3 °F 98% 30.26 in 5.0 mi Calm Calm - N/A   Clear
7:35 AM 46.8 °F 46.4 °F 99% 30.27 in 5.0 mi Calm Calm - N/A   Clear
7:55 AM 48.9 °F 48.4 °F 98% 30.27 in 10.0 mi Calm Calm - N/A   Clear
8:15 AM 51.8 °F 50.7 °F 96% 30.27 in 10.0 mi Calm Calm - N/A   Clear
8:35 AM 54.3 °F 51.8 °F 91% 30.27 in 10.0 mi Calm Calm - N/A   Clear
8:55 AM 56.7 °F 53.4 °F 89% 30.28 in 10.0 mi Calm Calm - N/A   Clear
9:15 AM 58.5 °F 53.8 °F 84% 30.28 in 10.0 mi Calm Calm - N/A   Clear
9:35 AM 60.8 °F 54.0 °F 78% 30.28 in 10.0 mi Calm Calm - N/A   Clear
9:55 AM 62.8 °F 53.2 °F 71% 30.29 in 10.0 mi Calm Calm - N/A   Clear
10:15 AM 64.4 °F 52.5 °F 65% 30.29 in 10.0 mi Calm Calm - N/A   Clear
10:35 AM 65.8 °F 53.8 °F 65% 30.29 in 10.0 mi Calm Calm - N/A   Clear
10:55 AM 67.8 °F 54.5 °F 62% 30.28 in 10.0 mi Calm Calm - N/A   Clear
11:15 AM 69.3 °F 55.4 °F 61% 30.28 in 10.0 mi ESE 4.6 mph - N/A   Clear
11:35 AM 70.7 °F 54.9 °F 57% 30.28 in 10.0 mi Calm Calm - N/A   Clear
11:55 AM 71.8 °F 55.8 °F 57% 30.27 in 10.0 mi SSW 3.5 mph - N/A   Clear
12:15 PM 73.2 °F 55.9 °F 55% 30.27 in 10.0 mi SSW 5.8 mph - N/A   Clear
12:35 PM 73.4 °F 53.8 °F 50% 30.27 in 10.0 mi SSW 5.8 mph - N/A   Clear
12:55 PM 74.5 °F 55.2 °F 51% 30.26 in 10.0 mi South 3.5 mph - N/A   Clear
1:15 PM 76.5 °F 56.3 °F 50% 30.25 in 10.0 mi Calm Calm - N/A   Clear
1:35 PM 76.6 °F 56.1 °F 49% 30.24 in 10.0 mi Calm Calm - N/A   Clear
1:55 PM 77.0 °F 56.5 °F 49% 30.24 in 10.0 mi SW 5.8 mph - N/A   Clear
2:15 PM 76.8 °F 55.6 °F 48% 30.23 in 10.0 mi SSW 6.9 mph - N/A   Clear
2:35 PM 78.3 °F 56.8 °F 48% 30.22 in 10.0 mi South 5.8 mph - N/A   Clear
2:55 PM 77.9 °F 57.4 °F 49% 30.21 in 10.0 mi Calm Calm - N/A   Scattered Clouds
3:15 PM 77.7 °F 56.3 °F 48% 30.21 in 10.0 mi Calm Calm - N/A   Scattered Clouds
3:35 PM 78.6 °F 56.7 °F 47% 30.20 in 10.0 mi SSW 3.5 mph - N/A   Scattered Clouds
3:55 PM 78.4 °F 56.3 °F 46% 30.19 in 10.0 mi Calm Calm - N/A   Scattered Clouds
4:15 PM 79.0 °F 57.0 °F 47% 30.18 in 10.0 mi SSE 5.8 mph - N/A   Scattered Clouds
4:35 PM 78.3 °F 57.2 °F 48% 30.18 in 10.0 mi SSW 3.5 mph - N/A   Mostly Cloudy
4:55 PM 77.4 °F 57.7 °F 51% 30.17 in 10.0 mi WSW 3.5 mph - N/A   Scattered Clouds
5:15 PM 76.6 °F 59.2 °F 55% 30.17 in 10.0 mi SW 3.5 mph - N/A   Mostly Cloudy
5:35 PM 77.4 °F 58.8 °F 53% 30.17 in 10.0 mi SSW 4.6 mph - N/A   Mostly Cloudy
5:55 PM 76.8 °F 59.7 °F 55% 30.17 in 10.0 mi SSW 3.5 mph - N/A   Scattered Clouds
6:15 PM 74.8 °F 59.9 °F 60% 30.17 in 10.0 mi Calm Calm - N/A   Clear
6:35 PM 73.6 °F 61.3 °F 65% 30.17 in 10.0 mi Calm Calm - N/A   Clear
6:55 PM 70.7 °F 62.6 °F 75% 30.17 in 10.0 mi Calm Calm - N/A   Clear
7:15 PM 68.0 °F 63.3 °F 85% 30.17 in 10.0 mi Calm Calm - N/A   Clear
7:35 PM 66.0 °F 62.8 °F 89% 30.17 in 10.0 mi Calm Calm - N/A   Scattered Clouds
7:55 PM 64.4 °F 61.9 °F 92% 30.17 in 10.0 mi Calm Calm - N/A   Scattered Clouds
8:15 PM 63.3 °F 61.3 °F 93% 30.17 in 10.0 mi Calm Calm - N/A   Scattered Clouds
8:35 PM 62.6 °F 61.0 °F 94% 30.17 in 10.0 mi Calm Calm - N/A   Scattered Clouds
8:55 PM 61.3 °F 60.1 °F 96% 30.17 in 7.0 mi Calm Calm - N/A   Scattered Clouds
9:15 PM 60.8 °F 59.9 °F 97% 30.18 in 10.0 mi Calm Calm - N/A   Clear
9:35 PM 60.8 °F 59.4 °F 95% 30.18 in 10.0 mi Calm Calm - N/A   Clear
9:55 PM 59.9 °F 59.0 °F 97% 30.19 in 7.0 mi Calm Calm - N/A   Clear
10:15 PM 60.3 °F 59.0 °F 96% 30.19 in 7.0 mi Calm Calm - N/A   Clear
10:35 PM 59.2 °F 58.3 °F 97% 30.19 in 5.0 mi Calm Calm - N/A   Clear
10:55 PM 58.8 °F 57.6 °F 96% 30.19 in 5.0 mi Calm Calm - N/A   Clear
11:15 PM 58.6 °F 57.6 °F 96% 30.18 in 5.0 mi Calm Calm - N/A   Clear
11:35 PM 57.6 °F 56.7 °F 97% 30.19 in 5.0 mi Calm Calm - N/A   Clear
11:55 PM 57.2 °F 56.3 °F 97% 30.19 in 7.0 mi Calm Calm - N/A   Clear